GFSNIL_sfc_rhum_255.txt.gz
RH
61 60 71 77 80 70 73 73 75 87 63 60 61 64 68 64 62 65 66 68 63 51
62 65 71 71 72 76 66 65 71 75 83 83 61 64 67 65 66 65 67 68 68 61
60 63 67 70 72 73 72 67 70 74 75 84 88 72 68 68 64 67 65 60 66 65
64 66 68 70 72 73 73 72 66 65 69 77 82 86 88 74 71 69 68 66 64 66
65 65 72 73 72 73 73 69 73 64 64 68 74 87 91 91 83 83 79 71 70 67
49 56 68 73 76 74 72 71 70 70 68 64 68 78 86 87 87 90 82 75 73 70
44 49 50 57 68 73 76 74 71 67 70 63 65 72 76 72 81 86 88 89 79 74
40 43 45 50 56 62 64 75 74 73 72 71 66 54 83 84 81 73 80 88 93 97
37 39 45 54 54 53 57 61 73 76 74 77 61 74 84 81 75 71 75 78 77 89
38 40 44 42 45 55 61 60 60 69 70 78 77 87 90 86 70 65 68 68 76 86
38 40 41 44 48 56 56 61 64 65 63 67 64 83 86 94 76 67 60 58 58 69
38 41 42 47 50 51 54 57 58 56 63 65 69 75 84 85 78 75 73 60 59 64
39 42 47 48 53 58 59 56 56 58 64 67 64 70 80 78 78 84 80 76 72 84
39 46 46 51 54 57 59 60 66 64 67 67 66 65 78 84 68 73 88 90 89 93

GFSNIL_sfc_rhum_261.txt.gz
RH
73 78 78 81 78 74 74 72 66 70 70 73 75 80 87 92 95 95 94 97 92 74
71 75 80 82 81 81 77 68 70 73 73 71 73 76 80 88 90 90 94 93 94 96
64 68 75 80 81 84 84 80 78 78 78 76 76 75 76 81 88 86 90 91 93 91
64 63 67 72 76 81 82 84 80 79 80 78 78 79 82 82 80 81 86 84 84 91
61 63 66 70 72 75 76 79 79 78 76 72 74 82 80 82 82 82 84 82 83 83
60 62 65 67 73 70 71 68 72 65 69 72 75 75 78 79 81 84 84 82 83 81
60 62 64 65 63 63 62 63 62 65 66 69 67 68 73 74 77 80 76 80 82 83
60 59 60 63 61 60 63 61 63 64 64 66 65 57 70 74 76 77 78 80 77 80
56 54 60 63 61 62 65 65 66 66 65 68 58 72 76 79 76 76 79 81 77 77
57 59 62 57 61 68 68 69 66 68 66 62 62 69 76 81 75 75 76 77 78 72
60 57 57 64 66 69 69 70 71 71 68 69 64 77 80 81 74 75 73 66 69 74
61 58 64 67 71 70 69 69 70 68 73 76 73 78 82 83 78 78 77 72 74 77
62 64 68 71 71 70 70 69 70 73 74 75 71 73 81 81 83 87 87 84 82 83
64 65 69 72 70 73 74 77 76 68 71 75 73 75 82 85 84 90 96 96 94 91

GFSNIL_sfc_rhum_267.txt.gz
RH
77 82 84 85 86 85 84 87 77 82 86 86 88 89 91 95 91 86 95 76 79 85
73 74 77 78 79 84 79 66 75 82 83 79 81 84 89 95 88 90 77 78 82 83
70 70 72 75 78 80 78 78 80 74 76 77 75 76 81 82 84 72 77 67 73 70
70 69 70 75 80 84 84 81 77 74 74 75 75 77 80 72 73 77 78 78 69 69
67 67 72 76 80 84 83 79 76 76 75 75 75 78 71 67 69 76 82 80 78 74
68 70 75 79 82 79 77 77 79 76 78 77 79 78 70 76 77 79 80 81 82 81
72 73 78 81 80 79 78 76 76 76 78 79 77 72 75 74 80 81 79 82 81 79
72 75 79 80 80 80 79 76 76 77 76 77 74 64 78 78 79 81 81 77 76 77
73 77 80 81 81 79 80 79 82 67 65 70 64 82 78 80 80 77 77 79 74 72
77 77 80 78 80 82 86 87 80 73 70 72 73 78 80 82 78 75 81 79 82 79
78 78 79 81 83 87 88 92 84 80 78 76 70 79 75 84 72 75 74 76 79 83
77 78 80 84 88 88 93 94 87 81 79 80 80 80 80 81 79 76 76 73 77 80
77 79 84 87 89 91 94 94 88 74 81 72 71 75 76 81 82 83 82 79 77 81
76 79 86 89 92 95 96 96 92 87 76 75 71 75 80 81 80 83 83 87 88 87

GFSNIL_sfc_rhum_273.txt.gz
RH
50 47 50 55 52 55 56 57 62 63 62 64 67 67 68 63 61 64 66 68 66 62
54 56 57 58 56 55 58 51 63 63 64 64 64 64 61 59 64 64 65 67 68 65
56 56 56 57 61 62 61 62 62 63 64 64 64 63 62 60 62 66 64 61 72 74
58 57 57 59 62 63 64 64 62 64 64 64 64 62 62 63 64 68 71 71 73 75
58 56 59 61 63 67 67 67 65 63 64 64 60 63 66 67 68 73 73 75 73 73
57 58 60 62 65 64 64 64 64 61 63 64 64 65 63 64 67 66 66 69 73 72
57 59 60 62 63 64 61 61 59 60 62 64 63 63 64 63 69 66 63 69 68 67
60 59 62 64 64 66 65 62 59 61 62 62 60 59 70 67 66 65 66 67 62 66
58 58 64 66 67 68 66 63 63 62 65 66 53 78 76 75 63 63 63 65 64 62
58 60 64 62 63 67 69 66 66 64 64 66 64 80 78 82 60 61 64 65 64 61
58 60 61 62 64 68 64 66 66 65 64 64 60 76 79 81 61 60 62 64 65 68
58 59 60 62 65 64 62 60 63 64 64 64 64 76 78 70 60 58 61 59 64 69
59 59 62 62 62 63 59 56 54 56 62 71 63 76 76 71 60 62 64 65 63 78
57 62 63 64 63 59 56 57 60 56 58 61 68 66 76 76 63 66 71 74 79 77

GFSNIL_sfc_rhum_276.txt.gz
RH
37 34 35 40 37 39 41 45 53 54 54 55 54 54 54 50 50 57 57 61 58 51
42 41 43 46 44 42 44 43 53 54 54 54 53 52 51 49 56 55 57 59 63 58
42 41 44 45 49 50 51 49 51 52 52 52 51 52 51 48 54 56 56 52 60 61
42 44 45 46 48 51 52 49 49 50 50 48 50 52 53 51 55 56 58 58 60 64
45 44 46 49 52 55 54 52 49 50 49 48 51 51 53 54 53 55 57 58 59 59
45 45 48 50 52 51 51 52 50 50 51 52 54 52 52 53 54 54 54 57 58 57
44 45 47 48 49 50 48 47 47 49 51 52 50 51 53 51 54 53 52 59 58 56
45 46 48 50 50 52 50 47 46 49 50 48 46 50 62 57 52 53 52 54 49 55
44 44 50 51 54 54 52 50 50 50 51 50 40 79 77 73 50 48 49 51 51 49
43 45 50 47 48 52 54 54 51 52 50 52 53 77 77 80 46 47 50 52 52 47
44 44 45 46 48 53 51 51 50 50 51 51 51 78 78 82 47 48 48 52 53 57
43 43 44 46 49 47 46 48 48 46 50 52 56 76 79 70 46 45 48 47 52 58
43 42 44 45 47 46 43 41 37 42 52 70 54 80 74 70 46 51 50 51 51 73
40 43 44 46 45 44 42 44 47 45 50 51 60 62 75 74 52 55 56 58 64 63

GFSNIL_sfc_rhum_279.txt.gz
RH
36 30 32 35 34 36 39 45 52 52 51 51 50 50 51 50 50 56 56 62 59 49
37 36 40 44 42 40 43 43 50 50 50 48 48 48 46 48 54 53 55 57 58 51
39 40 41 42 44 47 47 46 48 47 46 45 47 48 47 46 51 53 52 49 56 55
39 42 42 43 45 46 47 44 44 44 42 43 45 47 49 45 48 50 52 54 53 55
42 41 43 45 47 49 47 45 44 42 42 43 45 47 48 49 48 49 52 53 52 52
42 42 45 47 49 47 47 46 45 45 45 45 48 47 46 47 47 47 50 53 52 51
41 42 44 44 44 45 43 43 43 44 44 45 45 46 47 45 48 47 46 53 51 51
41 41 43 45 45 45 44 41 41 44 44 41 40 47 61 55 45 46 46 48 44 49
40 40 45 47 49 49 48 44 44 43 44 43 36 78 78 74 54 43 44 47 47 44
39 42 46 45 46 48 50 49 48 47 46 48 51 78 78 82 52 43 47 49 49 43
39 41 43 44 45 50 50 48 48 48 47 47 55 79 79 81 51 44 44 47 49 52
38 41 41 43 47 46 47 47 46 44 46 48 61 76 77 74 40 41 44 42 48 52
38 38 40 42 45 45 44 42 36 41 48 64 59 81 76 72 40 46 45 47 48 84
35 38 38 43 44 43 40 39 42 42 48 50 57 68 73 74 44 50 51 52 61 60